Lapse_Rate
5.5 5.5 5.3 5.2 5.3 5.6 5.8 6.0 5.9 5.9 5.8 5.8 5.9 6.0 5.9 5.3 6.9 9.5 9.7 8.5 7.7 5.8 5.6 5.7 6.0 6.3 6.2 6.2 6.1 5.9 5.5 5.4 5.3
4.8 4.6 4.9 5.1 5.2 5.3 5.7 5.7 5.7 5.6 5.8 6.0 6.2 6.1 5.9 6.3 8.1 9.5 9.6 9.6 9.0 6.3 5.6 5.7 5.9 6.2 6.9 6.6 6.6 6.4 6.2 5.9 5.6
3.9 3.8 3.8 4.1 4.2 4.3 4.5 5.0 5.3 5.3 5.4 5.5 5.7 5.9 5.8 6.9 8.4 8.9 9.1 9.5 7.8 6.8 6.1 6.0 5.9 6.1 6.4 6.8 6.6 6.5 6.5 6.4 6.1
3.2 3.4 3.0 3.4 3.6 3.7 3.8 4.1 4.3 4.4 4.6 5.0 5.1 4.8 5.3 6.3 8.1 8.8 8.6 9.3 7.9 6.8 5.9 5.9 6.2 6.4 6.6 6.7 6.7 6.6 6.7 6.7 6.6
3.2 3.8 2.5 2.4 2.8 3.0 3.3 3.5 3.6 3.5 3.5 4.0 4.4 4.5 4.5 6.4 7.9 8.3 8.4 7.7 7.0 6.8 6.5 6.4 6.8 6.9 6.8 6.7 6.6 6.6 6.7 6.6 6.8
5.5 3.7 2.5 2.2 2.6 3.0 3.3 3.5 3.6 3.5 3.4 4.7 4.5 4.4 6.6 8.8 9.2 7.8 7.7 7.1 7.2 6.6 6.9 6.4 6.4 6.4 6.4 6.3 6.3 6.3 6.5 6.7 6.4
4.8 4.0 3.3 2.7 2.4 3.1 3.2 3.7 4.2 4.9 8.6 9.0 7.6 8.6 9.4 9.7 9.6 9.7 7.3 6.2 6.2 6.7 6.5 6.2 6.5 6.5 6.4 6.6 6.7 6.3 6.4 6.3 6.5
7.1 6.9 7.2 6.1 6.7 7.4 7.1 7.5 9.0 8.7 8.4 8.7 9.5 9.6 9.7 9.7 9.7 9.7 7.7 6.1 6.2 6.4 6.8 6.8 6.8 7.0 7.0 7.0 7.1 7.1 6.9 6.5 6.1
6.3 6.8 6.3 7.3 7.8 7.2 8.1 8.5 8.9 9.3 9.6 9.7 9.7 9.7 9.7 9.8 9.8 9.7 6.4 5.8 6.2 6.2 6.7 7.0 7.1 7.1 7.2 7.1 7.0 6.7 6.4 6.4 6.5
5.6 6.0 6.3 6.1 6.3 7.0 7.7 8.6 9.5 9.7 9.7 9.7 9.8 9.8 9.8 9.7 9.7 9.7 6.9 6.3 6.2 6.2 6.5 6.8 7.1 7.3 7.3 7.2 6.9 6.6 6.5 6.4 6.2
5.3 5.7 6.1 6.7 6.4 6.8 7.4 9.3 9.6 9.5 9.8 9.7 9.8 9.8 9.8 9.7 9.7 9.7 9.6 7.2 6.9 6.1 6.3 6.7 6.7 6.8 6.8 6.9 6.8 6.9 6.9 7.0 6.9
5.4 6.1 7.0 6.6 5.8 6.6 8.0 9.0 9.5 9.6 9.8 9.7 9.7 9.8 9.8 9.7 9.7 9.7 9.7 9.4 6.9 6.8 6.4 6.0 6.1 6.0 6.0 6.5 6.8 7.2 7.3 7.2 7.0
5.7 6.2 6.5 5.8 5.6 6.3 8.5 8.5 8.0 9.5 9.5 9.5 9.5 9.6 9.8 9.8 9.7 9.7 9.7 9.6 9.5 7.2 6.5 5.5 5.0 4.8 4.8 5.4 6.1 6.4 6.4 6.0 5.9
5.5 6.2 6.3 5.8 5.9 7.1 7.1 6.5 6.9 9.2 9.4 9.3 9.4 9.5 9.5 9.6 9.8 9.7 9.7 9.2 8.8 8.3 6.4 5.1 3.9 3.8 4.3 5.0 5.7 5.5 5.6 6.0 6.4
5.4 6.1 6.3 5.8 6.2 7.0 6.2 5.3 6.0 8.2 8.1 7.4 9.1 9.3 9.4 9.3 9.6 9.6 9.7 9.4 8.9 8.4 7.8 7.8 4.9 4.0 4.0 4.1 4.4 4.6 5.1 5.6 6.2
5.7 6.4 6.6 6.5 6.4 6.7 8.1 5.9 6.3 7.8 7.8 8.3 8.0 8.8 9.0 9.4 9.5 9.7 9.6 9.5 9.6 9.1 8.5 7.2 5.2 4.8 3.9 4.1 3.8 4.0 4.5 5.4 6.6
5.8 6.4 6.5 6.7 6.3 6.9 7.7 7.5 5.9 7.7 8.2 8.2 7.7 7.8 8.3 9.0 9.3 9.5 9.5 9.5 9.6 8.5 9.0 6.3 7.4 7.0 6.1 4.4 4.1 3.2 3.9 5.3 6.4
5.5 5.8 6.1 6.4 6.4 6.5 6.7 7.1 5.5 6.9 7.6 8.8 7.8 7.7 7.4 6.7 8.8 9.1 9.3 9.4 9.4 8.7 7.6 7.7 7.3 7.2 6.0 5.3 4.8 2.7 3.6 4.9 6.4
5.9 5.8 5.9 6.3 6.3 6.2 6.4 7.5 6.4 7.1 7.6 8.2 8.2 7.7 7.4 7.4 7.6 7.9 8.6 9.2 8.4 8.4 7.9 7.6 7.5 6.7 5.7 5.3 4.1 2.7 3.5 5.0 6.1
5.8 5.8 6.0 6.2 6.4 6.3 6.1 5.9 7.1 6.9 7.5 7.2 7.8 8.1 7.8 7.3 7.2 7.6 8.1 8.0 7.9 8.1 8.2 8.1 7.7 6.5 5.6 6.2 4.0 2.9 3.7 5.1 5.7
Wind_Speed
7 7 8 8 8 9 10 10 11 11 11 11 11 11 10 9 13 14 10 8 12 3 7 8 10 10 10 9 9 9 9 8 8
10 10 10 10 10 11 11 11 12 12 12 12 13 14 11 12 14 15 11 11 9 8 10 11 12 13 13 13 12 11 11 11 11
8 8 8 9 9 9 10 11 12 12 12 12 12 13 12 14 15 13 15 11 5 9 13 13 14 14 15 15 16 14 14 14 13
6 7 7 10 10 10 11 11 11 12 12 12 11 11 12 14 15 14 12 15 11 11 13 15 16 16 16 17 16 17 17 16 16
2 5 10 11 11 11 11 12 12 13 14 16 13 12 14 15 17 15 12 14 8 10 15 17 17 18 18 18 18 17 17 20 19
10 6 8 10 10 12 11 12 14 16 18 22 16 12 13 18 13 12 13 13 14 11 17 16 16 16 16 17 18 19 19 19 21
8 8 6 8 7 13 10 11 14 17 13 13 12 12 13 13 11 11 2 2 9 12 14 13 12 11 10 10 12 15 16 18 20
9 10 10 11 7 11 11 13 11 12 12 12 13 14 14 12 12 15 9 2 5 13 12 10 10 10 10 11 13 14 13 15 17
9 9 11 10 11 11 11 11 13 13 13 13 12 13 12 11 11 13 5 3 2 9 11 11 10 10 12 13 15 15 15 15 16
9 9 10 10 11 11 10 11 10 10 11 12 10 9 11 12 10 10 7 2 3 8 10 10 10 12 13 14 15 15 16 18 17
8 8 8 9 11 12 12 9 8 8 8 9 9 9 10 10 10 10 9 4 1 3 6 7 9 10 11 12 13 14 15 16 17
8 6 6 9 11 12 12 11 11 8 8 9 8 8 9 8 9 8 7 5 6 4 5 7 8 9 10 12 12 13 14 15 16
8 5 5 9 10 9 7 7 8 8 8 7 7 7 6 7 7 6 5 5 6 7 7 7 7 10 11 11 12 12 13 14 15
8 6 7 10 7 6 6 7 8 8 7 7 7 6 5 6 3 3 2 4 3 5 4 4 8 11 9 9 10 12 13 14 15
7 7 7 8 5 5 5 8 8 8 7 9 8 4 3 2 1 1 2 3 4 5 5 5 9 8 9 10 12 13 16 16 18
7 6 6 6 6 6 6 6 8 7 7 7 7 5 1 1 1 2 2 2 3 4 5 7 4 4 6 9 13 15 17 18 19
7 6 5 5 5 6 6 5 5 5 5 5 6 3 2 3 2 1 3 4 2 5 6 6 5 3 5 8 11 16 19 20 22
8 8 6 6 5 5 5 4 5 5 4 5 2 4 4 8 3 3 3 4 4 3 4 5 7 7 8 8 10 17 20 21 22
10 9 9 6 5 6 4 3 3 4 5 4 2 0 0 2 5 6 8 3 4 2 2 1 4 6 5 7 9 16 19 20 22
10 10 9 7 5 5 5 5 5 3 4 4 4 3 2 4 4 6 6 6 6 6 5 2 1 1 4 6 8 13 16 18 19
Wind_Direction
9 5 1 355 348 334 321 307 296 292 287 275 272 269 269 268 272 265 264 245 268 247 268 267 270 266 258 261 260 258 253 254 256
14 12 9 5 3 359 352 341 338 331 307 283 276 271 266 266 276 276 262 256 234 249 267 270 270 267 266 250 253 258 255 255 256
15 12 10 1 355 349 343 338 337 337 336 336 305 283 269 265 259 270 287 261 209 248 265 270 271 273 276 275 253 249 251 251 253
357 353 2 351 342 337 333 329 327 325 321 318 318 309 281 266 270 266 255 273 213 238 258 265 267 269 270 271 274 262 250 249 251
293 309 8 342 334 329 326 321 316 312 305 297 288 297 293 259 258 259 268 281 231 245 268 270 272 272 270 269 271 270 267 257 249
340 17 341 321 320 316 309 309 305 296 285 268 254 267 270 271 245 229 244 260 265 273 279 284 286 286 289 288 284 280 272 265 259
308 295 275 275 269 289 265 280 276 277 299 309 248 264 276 286 287 280 184 277 311 294 289 297 297 300 305 302 307 292 282 276 269
336 329 337 330 301 330 323 320 318 317 308 304 298 298 295 287 282 280 216 165 294 296 291 305 307 306 310 310 310 312 314 298 284
342 336 332 330 330 326 326 321 314 314 308 307 306 301 297 288 288 291 143 155 281 285 296 297 300 301 303 304 305 307 306 304 303
337 336 334 334 333 327 325 319 318 313 314 306 306 305 302 298 296 290 171 159 341 302 298 303 306 310 312 312 311 309 306 303 301
337 330 338 333 338 331 325 321 317 314 312 310 310 306 303 296 290 290 295 165 148 330 328 333 335 330 323 318 314 311 309 307 303
330 331 330 344 335 326 325 323 321 318 316 315 318 315 316 313 303 298 300 298 159 122 45 11 359 351 339 328 321 316 317 322 321
330 332 337 339 328 325 325 327 325 322 319 320 322 313 310 306 307 321 316 352 342 128 79 39 31 15 355 340 333 332 333 329 321
332 333 334 339 330 324 342 337 325 322 322 324 311 302 322 319 298 344 347 55 14 338 96 113 65 24 2 1 359 359 339 331 329
323 320 330 331 326 333 342 334 329 314 349 318 310 319 323 295 333 359 78 45 2 2 350 5 24 8 7 9 360 350 345 338 330
300 306 314 322 322 324 334 332 328 328 340 314 332 269 185 345 273 215 8 49 6 339 353 57 2 2 355 2 356 351 347 340 332
283 299 305 309 312 315 326 343 333 319 336 330 305 314 194 222 280 276 304 333 331 52 358 360 342 343 349 5 357 355 353 348 347
273 280 281 292 295 300 313 339 333 313 312 338 327 326 354 345 106 238 305 338 319 79 36 352 341 353 9 359 358 357 354 349 347
273 271 276 280 283 288 299 313 298 300 307 317 106 118 123 321 317 352 309 334 355 128 142 355 2 8 353 347 27 359 353 350 351
269 267 270 268 269 274 288 296 288 276 285 283 298 292 246 226 242 291 317 355 317 17 352 135 111 17 358 346 7 353 352 352 351